Regional Weather Roundup
Issued by NWS

Home | Current Version | Previous Version | Graphics & Text | Print | Product List | Glossary Off
Versions: 1 2 3 4 5 6 7 8 9 10 11 12 13 14 15 16 17 18 19 20 21 22 23 24 25 26 27 28 29 30 31 32 33 34 35 36 37 38 39 40 41 42 43 44 45 46 47 48 49 50

000
ASUS43 KMKX 261421
RWRWI

WISCONSIN REGIONAL WEATHER ROUNDUP
NATIONAL WEATHER SERVICE MILWAUKEE/SULLIVAN WI
800 AM CST MON JAN 26 2015

NOTE: "FAIR" INDICATES FEW OR NO CLOUDS BELOW 12,000 FEET WITH NO
SIGNIFICANT WEATHER AND/OR OBSTRUCTIONS TO VISIBILITY.

WIZ001-002-006>008-014>016-023>028-261500-
NORTHWEST WISCONSIN

CITY           SKY/WX    TMP DP  RH WIND       PRES   REMARKS
SUPERIOR ARPT  CLOUDY    22  21  96 SW3       29.68S FOG
ASHLAND        LGT SNOW  20  16  84 S6        29.71F FOG     WCI  12
HAYWARD        MIX PCPN  18  15  88 S8        29.68F FOG     WCI   8
SIREN          CLOUDY    24  22  94 S8        29.69F FOG     WCI  14
CUMBERLAND     MIX PCPN  21  19  93 SE6       29.70S WCI  14
RICE LAKE      CLOUDY    21  18  90 SE9       29.74S WCI  10
CHETEK         MIX PCPN  20  18  91 E7        29.73F WCI  11
LADYSMITH      LGT SNOW  18  15  88 SE9       29.76F VSB 3/4 WCI   7
EAU CLAIRE     CLOUDY    21  17  84 S10       29.76F WCI  10
MENOMONIE      CLOUDY    23  21  91 E7        29.74F WCI  15
NEW RICHMOND   CLOUDY    27  26  96 S8        29.71F WCI  18
OSCEOLA        CLOUDY    27  27 100 S8        29.73F WCI  19
$$

WIZ003>005-009-010-017-018-261500-
NORTH CENTRAL WISCONSIN

CITY           SKY/WX    TMP DP  RH WIND       PRES   REMARKS
MANITOWISH WTR LGT SNOW  13   9  85 S9        29.73S WCI   1
ARBOR VITAE    LGT SNOW  17  11  77 S8        29.73F WCI   6
WOODRUFF       LGT SNOW  17  11  77 S8        29.73F WCI   6
RHINELANDER    LGT SNOW  14   7  73 S8        29.75F WCI   3
EAGLE RIVER    FLURRIES  13   7  75 S7        29.75F WCI   3
LAND O LAKES   FLURRIES  14   9  79 S8        29.75F WCI   3
PHILLIPS       LGT SNOW  15  11  86 S10       29.73F WCI   2
TOMAHAWK       LGT SNOW  14   9  83 CALM      29.77F
MEDFORD        LGT SNOW  15  11  86 SE9       29.76F WCI   3
MERRILL        LGT SNOW  15  10  83 S5        29.79F WCI   7
$$

WIZ029-030-035-036-043>047-261500-
CENTRAL WISCONSIN

CITY           SKY/WX    TMP DP  RH WIND       PRES   REMARKS
WAUSAU         LGT SNOW  14  10  84 SE8       29.80F FOG     WCI   3
MOSINEE        LGT SNOW  14  10  85 SE8       29.83F VSB 1   WCI   3
MARSHFIELD     LGT SNOW  17  12  80 S10       29.80S VSB 3/4 WCI   5
STEVENS POINT  FLURRIES  15   9  76 S6        29.85F WCI   6
WAUPACA        CLOUDY    18  11  74 SE5       29.90F WCI  11
WAUTOMA        CLOUDY    16  11  80 SE5       29.90F WCI   9
WISC RAPIDS    LGT SNOW  17  10  74 S8        29.84F WCI   7
CAMP DOUGLAS   SNOW      18  18 100 SE8       29.84F VSB 3/8 WCI   7
$$

WIZ011>013-019>022-031-037>040-048>050-261500-
NORTHEAST WISCONSIN

CITY           SKY/WX    TMP DP  RH WIND       PRES   REMARKS
ANTIGO         CLOUDY    12   6  77 S13       29.81F WCI  -3
SHAWANO        CLOUDY    16  10  77 CALM      29.90F
OCONTO         MOCLDY     9   7  92 CALM      29.92F
STURGEON BAY   MOCLDY    14  10  85 S3        29.93F
GREEN BAY      CLOUDY    14  10  84 CALM      29.93F
MANITOWOC      MOCLDY    15  12  88 CALM      29.94F
APPLETON       MOCLDY    16   9  73 VRB3      29.90F
CLINTONVILLE   CLOUDY    14  10  85 SE3       29.90F
OSHKOSH        CLOUDY    16  10  77 S7        29.91F WCI   6
$$

WIZ032>034-041-042-053>061-261500-
SOUTHWEST WISCONSIN

CITY           SKY/WX    TMP DP  RH WIND       PRES   REMARKS
LA CROSSE      LGT SNOW  23  19  85 S14       29.82F FOG     WCI  11
SPARTA         LGT SNOW  20  18  92 S3        29.85S
VIROQUA        CLOUDY    19  17  93 S9        29.83S WCI   7
BOSCOBEL       LGT SNOW  21  16  81 S5        29.90S VSB 3/4 WCI  15
PRAIRIE DU CHI LGT SNOW  21  18  87 CALM      29.90R VSB 3/4
PLATTEVILLE    CLOUDY    18  15  89 SE9       29.90F VSB 1/2 WCI   7
$$

WIZ056-057-062-063-064-067-068-261500-
SOUTH CENTRAL WISCONSIN

CITY           SKY/WX    TMP DP  RH WIND       PRES   REMARKS
REEDSBURG      LGT SNOW  18  14  84 S6        29.88F WCI  10
BARABOO/DELLS  MIX PCPN  18  14  82 S8        29.87F WCI   8
LONE ROCK      SNOW      18  15  88 E6        29.91F VSB 1/2 WCI  10
MINERAL POINT  SNOW      19  16  86 S7        29.88S VSB 1/2 WCI  10
MADISON        CLOUDY    18  10  71 S8        29.92F WCI   8
MIDDLETON      CLOUDY    20  12  71 S7        29.91F WCI  11
WATERTOWN      CLOUDY    15  12  87 CALM      29.94R
MONROE         CLOUDY    18  14  86 SE5       29.91R WCI  11
JANESVILLE     MOCLDY    18  12  79 CALM      29.94F
$$

WIZ051-052-058>065-066-070>072-261500-
SOUTHEAST WISCONSIN

CITY           SKY/WX    TMP DP  RH WIND       PRES   REMARKS
MILWAUKEE      MOCLDY    20  12  71 CALM      29.95S
WAUKESHA       MOCLDY    12  10  92 CALM      29.95S
MILWAUKEE/TIMM CLOUDY    16  10  79 CALM      29.96S
RACINE         MOCLDY    17  12  80 W3        29.97R
BURLINGTON     PTCLDY    12  10  89 CALM      29.94S
KENOSHA        MOCLDY    16  12  84 W5        29.95S WCI   9
FOND DU LAC    CLOUDY    16  10  77 S3        29.92F
SHEBOYGAN      PTCLDY    14  10  84 CALM      29.93F
WEST BEND      CLOUDY    14  12  92 CALM      29.92F
JUNEAU         CLOUDY    15  10  81 S3        29.93S
$$

LSZ147-162-261500-
LAKE SUPERIOR

STATION/POSITION TIME  TEMP    WIND        PRES    WAVE
                       AIR SEA DIR/SP/G            HT/PER
                 (UTC) (F)     (DEG/KT/KT) (MB)    (FT/S)
DEVILS ISLAND    1400   21     170/  8/ 13 1007.2F
PORT WING        1300   21     190/  9/ 13 1005.8
SAXON HARBOR     1320   20     180/  5/ 13 1006.8F
$$

LMZ867-665-643>646-261500-
LAKE MICHIGAN

STATION/POSITION TIME  TEMP    WIND        PRES    WAVE
                       AIR SEA DIR/SP/G            HT/PER
                 (UTC) (F)     (DEG/KT/KT) (MB)    (FT/S)
NORTHPORT PIER   1315   16     230/  2/  4 1014.2F
SISTER BAY       1313   13        CALM       N/A
KEWAUNEE LAKESHO 1400   16     300/  2/  4 1013.0F
SHEBOYGAN LAKESH 1400   21     220/  3/  4 1015.1F
PORT WASHINGTON  1340   19        CALM     1015.2S
MILWAUKEE LAKESH 1400   22     250/  6/  6   N/A
KENOSHA   LAKESH 1400   17     270/  7/  8 1014.6S
$$

TC  - TEMPERATURE IN CELSIUS
VSB - VISIBILITY IN STATUTE MILES
WCI - WIND CHILL INDEX
HX  - HEAT INDEX




USA.gov is the U.S. government's official web portal to all federal, state and local government web resources and services.